Total_Precipitation_Accumulation
0.09 0.07 0.09 0.09 0.08 0.07 0.07 0.08 0.09 0.08 0.08 0.09 0.11 0.10 0.09 0.08 0.09 0.12 0.13 0.10 0.12 0.12 0.09 0.03 0.00 0.00 0.01 0.06 0.04 0.00 0.00 0.04 0.13 0.30 0.04 0.01 0.00 0.00 0.00 0.00 0.00 0.00 0.00 0.00 0.00 0.00 0.00
0.06 0.06 0.05 0.06 0.06 0.08 0.10 0.11 0.11 0.11 0.11 0.11 0.11 0.11 0.12 0.12 0.10 0.09 0.11 0.08 0.08 0.12 0.15 0.09 0.00 0.01 0.00 0.01 0.00 0.00 0.00 0.00 0.03 0.20 0.09 0.02 0.01 0.00 0.00 0.00 0.00 0.00 0.00 0.00 0.00 0.00 0.00
0.03 0.03 0.05 0.07 0.09 0.10 0.11 0.13 0.14 0.14 0.15 0.14 0.14 0.13 0.11 0.11 0.13 0.12 0.13 0.11 0.09 0.12 0.13 0.14 0.02 0.00 0.00 0.00 0.00 0.00 0.00 0.00 0.01 0.16 0.15 0.06 0.02 0.03 0.03 0.01 0.00 0.00 0.00 0.00 0.00 0.00 0.00
0.02 0.02 0.04 0.07 0.09 0.10 0.12 0.13 0.12 0.15 0.16 0.16 0.18 0.17 0.15 0.15 0.14 0.15 0.14 0.15 0.14 0.17 0.23 0.22 0.06 0.01 0.00 0.00 0.00 0.00 0.00 0.00 0.00 0.09 0.26 0.18 0.03 0.04 0.04 0.02 0.00 0.01 0.01 0.00 0.00 0.00 0.00
0.02 0.03 0.02 0.05 0.07 0.08 0.10 0.11 0.13 0.12 0.13 0.18 0.19 0.15 0.15 0.17 0.19 0.17 0.18 0.23 0.24 0.27 0.39 0.40 0.11 0.01 0.00 0.00 0.00 0.00 0.00 0.00 0.01 0.05 0.24 0.14 0.06 0.01 0.01 0.03 0.02 0.01 0.00 0.00 0.00 0.00 0.00
0.03 0.02 0.02 0.04 0.06 0.10 0.11 0.13 0.14 0.12 0.15 0.20 0.19 0.19 0.19 0.22 0.28 0.32 0.38 0.44 0.47 0.38 0.65 0.72 0.14 0.02 0.00 0.00 0.00 0.00 0.00 0.00 0.00 0.02 0.13 0.15 0.09 0.03 0.01 0.02 0.01 0.01 0.01 0.00 0.00 0.00 0.00
0.02 0.02 0.03 0.05 0.07 0.12 0.17 0.17 0.16 0.15 0.18 0.20 0.22 0.24 0.28 0.36 0.34 0.44 0.66 0.87 0.87 0.79 0.67 0.45 0.15 0.00 0.00 0.00 0.00 0.00 0.00 0.00 0.00 0.02 0.01 0.06 0.10 0.05 0.00 0.00 0.00 0.00 0.00 0.00 0.00 0.00 0.01
0.03 0.03 0.05 0.07 0.08 0.11 0.16 0.16 0.17 0.16 0.18 0.23 0.26 0.32 0.33 0.30 0.31 0.62 0.92 0.88 0.49 0.55 0.47 0.18 0.05 0.01 0.00 0.00 0.00 0.00 0.00 0.00 0.01 0.01 0.00 0.00 0.01 0.01 0.00 0.00 0.00 0.00 0.01 0.00 0.00 0.00 0.02
0.03 0.04 0.08 0.08 0.08 0.10 0.12 0.19 0.21 0.26 0.29 0.31 0.33 0.32 0.34 0.32 0.44 0.82 0.70 0.48 0.33 0.57 0.48 0.26 0.11 0.02 0.00 0.00 0.00 0.00 0.00 0.00 0.00 0.00 0.00 0.01 0.00 0.00 0.00 0.00 0.00 0.00 0.00 0.00 0.00 0.00 0.00
0.03 0.04 0.09 0.08 0.09 0.10 0.12 0.21 0.37 0.43 0.43 0.53 0.40 0.40 0.42 0.60 1.06 0.68 0.57 0.31 0.65 0.77 0.43 0.31 0.15 0.03 0.00 0.01 0.01 0.00 0.00 0.00 0.01 0.01 0.00 0.02 0.00 0.00 0.00 0.00 0.00 0.00 0.00 0.00 0.00 0.01 0.00
0.03 0.06 0.09 0.10 0.11 0.14 0.17 0.23 0.39 0.49 0.52 0.49 0.55 0.53 0.60 1.01 1.20 0.70 0.49 0.45 1.03 1.05 0.46 0.23 0.09 0.01 0.01 0.01 0.00 0.00 0.00 0.01 0.01 0.00 0.01 0.02 0.00 0.00 0.00 0.00 0.00 0.00 0.00 0.00 0.00 0.02 0.06
0.04 0.08 0.10 0.12 0.15 0.20 0.21 0.24 0.27 0.30 0.35 0.57 0.81 0.83 1.06 0.92 0.88 0.57 0.55 0.79 1.39 1.22 0.59 0.29 0.07 0.05 0.05 0.04 0.01 0.01 0.02 0.05 0.04 0.11 0.11 0.01 0.00 0.00 0.00 0.00 0.00 0.01 0.03 0.02 0.03 0.10 0.13
0.05 0.10 0.13 0.15 0.18 0.20 0.25 0.24 0.18 0.24 0.42 0.72 0.91 1.07 1.11 0.97 0.78 0.66 0.98 1.25 1.27 0.79 0.28 0.09 0.03 0.05 0.02 0.03 0.03 0.02 0.06 0.13 0.23 0.23 0.27 0.14 0.02 0.00 0.00 0.00 0.00 0.02 0.09 0.19 0.17 0.17 0.05
0.06 0.12 0.15 0.17 0.19 0.28 0.31 0.25 0.30 0.38 0.50 0.53 1.07 1.01 1.04 0.85 0.76 1.16 1.40 1.04 0.52 0.25 0.11 0.02 0.02 0.03 0.02 0.02 0.04 0.03 0.06 0.09 0.08 0.18 0.24 0.14 0.07 0.01 0.00 0.00 0.00 0.01 0.03 0.12 0.07 0.02 0.01
0.08 0.14 0.17 0.17 0.19 0.21 0.18 0.19 0.21 0.29 0.54 0.83 1.13 1.25 1.30 1.12 0.99 1.20 1.27 0.75 0.53 0.14 0.02 0.02 0.04 0.06 0.05 0.02 0.03 0.05 0.05 0.03 0.02 0.03 0.10 0.07 0.01 0.00 0.00 0.00 0.04 0.13 0.18 0.04 0.15 0.12 0.21
0.09 0.15 0.17 0.17 0.16 0.14 0.19 0.17 0.24 0.53 0.82 0.92 1.21 1.63 1.22 0.89 1.06 1.31 0.92 0.50 0.40 0.05 0.00 0.00 0.05 0.04 0.01 0.01 0.03 0.03 0.02 0.00 0.00 0.00 0.00 0.01 0.03 0.01 0.04 0.05 0.03 0.06 0.07 0.23 0.55 0.28 0.13
0.10 0.16 0.16 0.16 0.15 0.15 0.22 0.30 0.41 0.59 0.79 1.40 1.18 1.75 1.16 0.82 1.23 1.31 0.85 0.61 0.19 0.01 0.00 0.00 0.01 0.03 0.00 0.00 0.00 0.00 0.00 0.00 0.00 0.00 0.00 0.01 0.04 0.03 0.19 0.08 0.02 0.03 0.15 0.15 0.21 0.18 0.22
0.12 0.15 0.13 0.15 0.13 0.17 0.30 0.37 0.51 0.60 0.84 1.70 1.81 1.37 1.10 1.04 1.48 0.94 0.50 0.47 0.17 0.03 0.01 0.01 0.05 0.04 0.00 0.00 0.00 0.00 0.00 0.00 0.00 0.00 0.01 0.00 0.10 0.13 0.07 0.03 0.05 0.06 0.04 0.06 0.23 0.07 0.20
0.13 0.13 0.11 0.14 0.12 0.15 0.27 0.32 0.45 0.52 1.00 1.61 1.69 1.32 1.33 0.74 0.59 0.42 0.39 0.13 0.08 0.04 0.03 0.03 0.04 0.03 0.00 0.00 0.00 0.00 0.00 0.00 0.00 0.00 0.00 0.01 0.17 0.27 0.20 0.19 0.21 0.14 0.05 0.07 0.15 0.45 0.55
0.11 0.11 0.12 0.12 0.10 0.12 0.21 0.21 0.34 0.51 1.09 1.66 1.45 1.78 1.90 1.27 0.30 0.17 0.21 0.11 0.05 0.03 0.01 0.08 0.11 0.07 0.04 0.02 0.00 0.00 0.00 0.00 0.00 0.00 0.01 0.07 0.21 0.26 0.32 0.37 0.64 0.40 0.13 0.17 0.55 0.95 0.35
0.11 0.10 0.11 0.13 0.09 0.07 0.08 0.13 0.26 0.55 1.21 1.43 1.09 0.72 0.53 0.69 0.29 0.08 0.13 0.08 0.03 0.02 0.02 0.13 0.11 0.09 0.05 0.03 0.01 0.00 0.00 0.00 0.00 0.02 0.12 0.28 0.33 0.29 0.22 0.26 0.61 0.59 0.22 0.25 0.77 0.49 0.42
0.09 0.08 0.11 0.11 0.06 0.04 0.05 0.08 0.17 0.75 1.35 1.09 0.86 0.39 0.04 0.03 0.03 0.01 0.02 0.04 0.02 0.01 0.05 0.10 0.07 0.04 0.04 0.04 0.01 0.00 0.00 0.00 0.00 0.02 0.11 0.29 0.51 0.56 0.41 0.32 0.31 0.32 0.12 0.23 0.53 0.37 0.24
0.09 0.08 0.11 0.09 0.03 0.04 0.05 0.09 0.20 0.73 1.41 1.15 0.70 0.35 0.06 0.03 0.02 0.01 0.00 0.00 0.01 0.03 0.02 0.02 0.05 0.08 0.04 0.03 0.02 0.02 0.01 0.02 0.01 0.02 0.11 0.31 0.46 0.77 0.64 0.40 0.37 0.32 0.08 0.17 0.38 0.32 0.16
0.09 0.09 0.11 0.08 0.03 0.03 0.04 0.09 0.24 0.60 0.97 1.16 0.72 0.41 0.16 0.06 0.01 0.00 0.00 0.00 0.00 0.01 0.01 0.01 0.02 0.06 0.03 0.02 0.03 0.05 0.01 0.02 0.02 0.01 0.03 0.16 0.37 0.73 0.93 0.76 0.75 0.44 0.13 0.16 0.17 0.16 0.10
0.09 0.11 0.09 0.05 0.03 0.02 0.04 0.06 0.19 0.50 0.51 0.70 0.55 0.39 0.15 0.04 0.01 0.02 0.02 0.01 0.02 0.02 0.01 0.01 0.02 0.01 0.03 0.08 0.11 0.14 0.14 0.04 0.00 0.01 0.01 0.04 0.19 0.37 0.41 0.34 0.17 0.11 0.13 0.11 0.08 0.10 0.03
0.08 0.09 0.07 0.03 0.02 0.03 0.03 0.04 0.15 0.39 0.40 0.56 0.66 0.62 0.17 0.05 0.01 0.00 0.02 0.02 0.06 0.06 0.02 0.03 0.03 0.04 0.09 0.20 0.26 0.19 0.06 0.01 0.01 0.00 0.00 0.01 0.05 0.17 0.12 0.16 0.08 0.03 0.02 0.02 0.02 0.01 0.00
0.08 0.08 0.04 0.03 0.02 0.02 0.02 0.03 0.16 0.27 0.32 0.47 0.62 0.50 0.16 0.04 0.01 0.00 0.01 0.01 0.00 0.01 0.05 0.08 0.11 0.16 0.18 0.26 0.26 0.13 0.02 0.00 0.00 0.00 0.00 0.01 0.03 0.05 0.07 0.07 0.01 0.00 0.00 0.00 0.01 0.02 0.00
0.08 0.06 0.03 0.03 0.02 0.01 0.02 0.02 0.11 0.17 0.25 0.36 0.40 0.41 0.23 0.04 0.01 0.00 0.00 0.00 0.00 0.01 0.06 0.11 0.20 0.24 0.24 0.29 0.21 0.11 0.02 0.01 0.00 0.00 0.00 0.00 0.01 0.01 0.01 0.01 0.00 0.00 0.00 0.00 0.00 0.00 0.00
0.06 0.05 0.03 0.02 0.02 0.01 0.01 0.02 0.06 0.13 0.17 0.29 0.30 0.31 0.21 0.05 0.01 0.00 0.00 0.00 0.00 0.01 0.07 0.09 0.18 0.19 0.24 0.21 0.14 0.10 0.04 0.01 0.00 0.01 0.00 0.00 0.00 0.00 0.00 0.00 0.00 0.00 0.00 0.00 0.00 0.00 0.00